Regional Weather Roundup
Issued by NWS

Home | Current Version | Previous Version | Graphics & Text | Print | Product List | Glossary Off
Versions: 1 2 3 4 5 6 7 8 9 10 11 12 13 14 15 16 17 18 19 20 21 22 23 24 25 26 27 28 29 30 31 32 33 34 35 36 37 38 39 40 41 42 43 44 45 46 47 48 49 50

000
ASUS43 KMPX 280010
RWRMN
WEATHER ROUNDUP FOR MINNESOTA
NATIONAL WEATHER SERVICE TWIN CITIES/CHANHASSEN MN
700 PM CDT MON APR 27 2015


NOTE: "FAIR" INDICATES FEW OR NO CLOUDS BELOW 12,000 FEET WITH NO
SIGNIFICANT WEATHER AND/OR OBSTRUCTIONS TO VISIBILITY. N/A MEANS
CURRENT SKY AND/OR WEATHER CONDITIONS ARE NOT AVAILABLE.

MNZ060>063-068>070-280100-
   Twin Cities Metro

CITY           SKY/WX    TMP DP  RH WIND       PRES   REMARKS
TWIN CITIES    MOSUNNY   68  25  19 NW8       30.13F
6HR MIN TEMP:  63; 6HR MAX TEMP:  69;

ST PAUL        SUNNY     68  23  18 N5        30.13F
CRYSTAL        SUNNY     69  23  17 N3        30.12F
LAKEVILLE      SUNNY     64  27  24 N7        30.13F
EDEN PRAIRIE   SUNNY     67  25  20 N7        30.12F
6HR MIN TEMP:  63; 6HR MAX TEMP:  70;

SOUTH ST PAUL  SUNNY     67  24  19 N3        30.13S
LAKE ELMO      FAIR      66  27  22 N5        30.14F
$$
MNZ001>005-007-008-013>017-022>024-027-028-280100-
   Northwest Minnesota

CITY           SKY/WX    TMP DP  RH WIND       PRES   REMARKS
BEMIDJI        MOSUNNY   66  28  23 NW6       30.13S
HALLOCK        CLOUDY    52  39  62 N16       30.23R
ROSEAU         CLOUDY    61  45  55 NW12      30.17S
WARROAD        CLOUDY    61  46  59 NW8       30.17S
THIEF RVR FALL PTSUNNY   61  39  44 N12       30.17S
CROOKSTON      PTSUNNY   61  43  51 N20G26    30.18R
FOSSTON        MOSUNNY   66  28  24 NW10      30.14F
DETROIT LAKES  MOSUNNY   68  27  21 W5        30.16F
MOORHEAD       MOSUNNY   70  21  16 CALM      30.14S
PARK RAPIDS    MOSUNNY   71  24  17 NW6       30.12F
MAHNOMEN       FAIR      67  26  21 CALM      30.13F
$$
MNZ006-009>011-018-025>026-280100-
   North Central Minnesota

CITY           SKY/WX    TMP DP  RH WIND       PRES   REMARKS
BAUDETTE       PTSUNNY   64  37  36 NW10      30.14R
FLAG ISLAND    CLOUDY    57  43  58 NW10      30.15S
INTL FALLS     PTSUNNY   64  28  25 NE5       30.13F
6HR MIN TEMP:  63; 6HR MAX TEMP:  68;

WASKISH        MOSUNNY   64  34  32 CALM      30.13S
BIG FORK       MOSUNNY   70  25  18 CALM      30.13S
LONGVILLE      MOSUNNY   66  27  22 N3        30.13F
GRAND RAPIDS   MOSUNNY   70  25  18 CALM      30.14S
CRANE LAKE     MOSUNNY   64  19  17 CALM      30.16S
ORR            MOSUNNY   64  21  19 CALM      30.12S
COOK           MOSUNNY   64  25  22 N5        30.15S
WALKER         FAIR      65  28  24 E3        30.13F
$$
MNZ012-019>021-037-280100-
   Northeast Minnesota

CITY           SKY/WX    TMP DP  RH WIND       PRES   REMARKS
DULUTH         MOSUNNY   67  22  18 N6        30.13S
6HR MIN TEMP:  60; 6HR MAX TEMP:  69;

ELY            MOSUNNY   63  21  20 CALM      30.15R
HIBBING        SUNNY     67  20  16 NE6       30.12F
EVELETH        MOSUNNY   64  23  20 NE7       30.14F
DULUTH HARBOR  MOSUNNY   43  36  75 NE6       30.16R
TWO HARBORS    SUNNY     57  34  41 E5        30.14S
SILVER BAY     MOSUNNY   54  28  37 CALM      30.15R
GRAND MARAIS     N/A     42  32  67 SW3       30.18S
G MARAIS ARPRT SUNNY     48  25  40 CALM      30.17R
$$
MNZ029>031-032-039>041-046>048-054>057-064-280100-
   West Central Minnesota

CITY           SKY/WX    TMP DP  RH WIND       PRES   REMARKS
FERGUS FALLS   SUNNY     70  16  12 N3        30.15S
WHEATON        MOSUNNY   66  27  22 CALM      30.17S
MORRIS         SUNNY     70  23  17 N7        30.15S
ALEXANDRIA     MOSUNNY   66  25  21 N5        30.16F
ELBOW LAKE     FAIR      67  23  19 NW3       30.15F
WADENA         SUNNY     66  30  26 W8        30.14S
GLENWOOD       SUNNY     66  25  20 W5        30.16F
APPLETON       MOSUNNY   70  18  13 SW8       30.15F
BENSON         SUNNY     66  12  12 N5        30.16S
ORTONVILLE     MOSUNNY   68  18  14 W3        30.16S
MADISON        MOSUNNY   66  19  16 CALM      30.16S
WILLMAR        FAIR      66  27  22 N5        30.17S
$$
MNZ033>034-036-042>043-049>051-058-059-280100-
   Central Minnesota

CITY           SKY/WX    TMP DP  RH WIND       PRES   REMARKS
ST CLOUD       SUNNY     69  23  17 N6        30.13F
6HR MIN TEMP:  64; 6HR MAX TEMP:  70;

SAUK CENTRE    FAIR      67  27  22 NW8       30.14F
PAYNESVILLE    SUNNY     65  25  21 W7        30.15F
AITKIN         SUNNY     70   1   7 N7        30.11F
PINE RIVER     SUNNY     66  34  30 NE5       30.16S
BRAINERD       SUNNY     68  24  19 NE8       30.13F
STAPLES        SUNNY     68  25  19 W8        30.13S
LONG PRAIRIE   FAIR      66  27  22 W6        30.15S
LITTLE FALLS   SUNNY     68  19  15 CALM      30.13F
LITCHFIELD     SUNNY     66  25  20 N5        30.15S
BUFFALO        SUNNY     67  22  17 N6        30.14F
MAPLE LAKE     SUNNY     68  27  21 CALM      30.14F
$$
MNZ037-044-045-052-053-280100-
   East Central Minnesota

CITY           SKY/WX    TMP DP  RH WIND       PRES   REMARKS
PRINCETON      SUNNY     68  23  18 CALM      30.14S
MORA           SUNNY     64  25  22 W5        30.15S
CAMBRIDGE      SUNNY     70  41  35 N5        30.12S
RUSH CITY      SUNNY     67  23  19 CALM      30.13S
MOOSE LAKE     SUNNY     68  28  22 CALM      30.11F
HINCKLEY       FAIR      68  25  19 N3        30.13S
CLOQUET        MOSUNNY   66  16  14 NE5       30.13S
MCGREGOR       SUNNY     68  21  17 NE6       30.13F
$$
MNZ071>073-080-081-089-090-097-098-280100-
   Southwest Minnesota

CITY           SKY/WX    TMP DP  RH WIND       PRES   REMARKS
MONTEVIDEO     SUNNY     68  23  18 NW6       30.16F
GRANITE FALLS  SUNNY     67  23  19 N5        30.17S
CANBY          MOSUNNY   67  26  22 NW5       30.17S
MARSHALL       MOSUNNY   68  21  17 NW6       30.15S
REDWOOD FALLS  SUNNY     69  20  15 N7        30.14S
OLIVIA         SUNNY     66  25  20 N5        30.15S
PIPESTONE      SUNNY     66  18  15 NE1       30.16S
WINDOM         SUNNY     66  19  16 CALM      30.15F
WORTHINGTON    SUNNY     64  21  19 N7        30.16S
JACKSON        SUNNY     68  14  12 NE9       30.15S
TRACY          SUNNY     68  21  16 N7        30.16S
SLAYTON        SUNNY     66  17  15 CALM      30.16F
$$
MNZ065>067-074>077-082>085-091>093-280100-
   South Central Minnesota

CITY           SKY/WX    TMP DP  RH WIND       PRES   REMARKS
MANKATO        SUNNY     66  23  19 NE8       30.14F
NEW ULM        SUNNY     66  19  16 N6        30.14S
ST JAMES       SUNNY     68  10  10 N3        30.15S
FAIRMONT       SUNNY     68  23  18 NE8       30.13F
GLENCOE        SUNNY     68  28  22 N7        30.14S
FARIBAULT      SUNNY     66  25  20 N5        30.14S
OWATONNA       SUNNY     64  21  19 N9        30.14S
WASECA         SUNNY     64  27  24 VRB12     30.16S
ALBERT LEA     SUNNY     66  25  20 N10       30.14S
$$
MNZ078>079-086>088-094>096-280100-
   Southeast Minnesota

CITY           SKY/WX    TMP DP  RH WIND       PRES   REMARKS
ROCHESTER      SUNNY     63  33  32 N14       30.13S
6HR MIN TEMP:  59; 6HR MAX TEMP:  66;

RED WING       SUNNY     68  23  18 N7        30.11S
STANTON        SUNNY     68  22  17 N10       30.12F
DODGE CENTER   SUNNY     64  28  25 N12       30.14S
WINONA         SUNNY     70  34  26 CALM      30.11S
AUSTIN         SUNNY     63  32  31 N8        30.12S
PRESTON        SUNNY     62  31  32 N10       30.12F
$$
ABBREVIATIONS USED IN REMARKS
   TC - TEMPERATURES IN CELSIUS
  WCI - WIND CHILL INDEX
   HX - HEAT INDEX
  VSB - VISIBILITY
$$



USA.gov is the U.S. government's official web portal to all federal, state and local government web resources and services.